Hat Yai, Thailand

6:58 AM +07 on November 21, 2017 (GMT +0700)
Hat Yai International

Weather History for VTSS - March, 2013

Change the Weather History Date:

Monday, March 11, 2013

  Actual Average Record
Temperature  
Mean Temperature 83 °F -  
Max Temperature 92 °F 90 °F 96 °F (1998)
Min Temperature 74 °F 73 °F 64 °F (2014)
Cooling Degree Days 18    
Growing Degree Days 33 (Base 50)    
Moisture  
Dew Point 71 °F    
Average Humidity 73    
Maximum Humidity 94    
Minimum Humidity 41    
Precipitation  
Precipitation 0.00 in - - ()
Sea Level Pressure  
Sea Level Pressure 29.86 in    
Wind  
Wind Speed 3 mph ()    
Max Wind Speed 12 mph    
Max Gust Speed -    
Visibility 4.8 miles    
Events      
Averages and records for this station are not official NWS values.
T = Trace of Precipitation, MM = Missing Value Source: Averaged Metar Reports

Daily Weather History Graph

Daily Weather History Graph

Search for Another Location

Airport or City:

Trip Planner

Search our weather history database for the weather conditions in past years. The results will help you decide how hot, cold, wet, or windy it might be!

Date:

Astronomy

Mar. 11, 2013 Rise Set
Actual Time 6:26 AM +07 6:29 PM +07
Civil Twilight 6:05 AM +07 6:50 PM +07
Nautical Twilight 5:41 AM +07 7:14 PM +07
Astronomical Twilight 5:17 AM +07 7:39 PM +07
Moon 5:42 AM +07 (3/11) 6:02 PM +07 (3/11)
Length of Visible Light 12h 44m
Length of Day
12h 03m
Waning Crescent, 0% of the Moon is Illuminated
Mar 11
Waning Crescent
Mar 12
New
Mar 20
First Quarter
Mar 27
Full
Apr 3
Last Quarter

Hourly Weather History & Observations

Time (+07) Temp. Heat Index Dew Point Humidity Pressure Visibility Wind Dir Wind Speed Gust Speed Precip Events Conditions
12:00 AM 78.8 °F - 73.4 °F 83% 29.89 in 4.3 mi Calm Calm - N/A   Mostly Cloudy
12:30 AM 77.0 °F - 73.4 °F 89% 29.89 in 3.7 mi Calm Calm - N/A   Mostly Cloudy
1:00 AM 77 °F - 73 °F 85% 29.89 in 4 mi SE 2.3 mph - -   Mist
1:00 AM 77.0 °F - 73.4 °F 89% 29.89 in 3.7 mi SE 2.3 mph - N/A   Mostly Cloudy
1:30 AM 77.0 °F - 73.4 °F 89% 29.86 in 3.7 mi West 3.5 mph - N/A   Mostly Cloudy
2:00 AM 77.0 °F - 73.4 °F 89% 29.86 in 3.7 mi WNW 3.5 mph - N/A   Mostly Cloudy
2:30 AM 77.0 °F - 73.4 °F 89% 29.86 in 3.7 mi Calm Calm - N/A   Mostly Cloudy
3:00 AM 77.0 °F - 73.4 °F 89% 29.86 in 2.5 mi NW 2.3 mph - N/A   Mostly Cloudy
3:30 AM 75.2 °F - 73.4 °F 94% 29.86 in 3.1 mi WNW 3.5 mph - N/A   Mostly Cloudy
4:00 AM 75.2 °F - 73.4 °F 94% 29.83 in 3.1 mi Calm Calm - N/A   Mostly Cloudy
4:30 AM 75.2 °F - 71.6 °F 89% 29.83 in 3.1 mi Calm Calm - N/A   Mostly Cloudy
5:00 AM 75.2 °F - 71.6 °F 89% 29.83 in 3.1 mi Calm Calm - N/A   Mostly Cloudy
5:30 AM 75.2 °F - 71.6 °F 89% 29.86 in 2.5 mi Calm Calm - N/A   Mostly Cloudy
6:00 AM 75.2 °F - 71.6 °F 89% 29.86 in 2.5 mi South 2.3 mph - N/A   Mostly Cloudy
6:30 AM 75.2 °F - 71.6 °F 89% 29.86 in 3.1 mi SSW 2.3 mph - N/A   Mostly Cloudy
7:00 AM 75 °F - 72 °F 88% 29.87 in 4 mi Calm Calm - -   Mist
7:00 AM 75.2 °F - 71.6 °F 89% 29.89 in 3.7 mi Calm Calm - N/A   Scattered Clouds
7:30 AM 77.0 °F - 73.4 °F 89% 29.89 in 4.3 mi Calm Calm - N/A   Scattered Clouds
8:00 AM 78.8 °F - 75.2 °F 89% 29.89 in 5.6 mi East 2.3 mph - N/A   Scattered Clouds
8:30 AM 80.6 °F 86.2 °F 75.2 °F 84% 29.92 in 5.6 mi East 3.5 mph - N/A   Scattered Clouds
9:00 AM 80.6 °F 85.4 °F 73.4 °F 79% 29.92 in 5.6 mi Calm Calm - N/A   Scattered Clouds
9:30 AM 82.4 °F 87.2 °F 71.6 °F 70% 29.92 in 5.6 mi NE 4.6 mph - N/A   Scattered Clouds
10:00 AM 84.2 °F 90.9 °F 73.4 °F 70% 29.92 in 5.6 mi NNE 5.8 mph - N/A   Scattered Clouds
10:30 AM 86.0 °F 91.8 °F 71.6 °F 62% 29.92 in 5.6 mi ENE 5.8 mph - N/A   Scattered Clouds
11:00 AM 86.0 °F 90.4 °F 69.8 °F 58% 29.92 in 5.6 mi NE 8.1 mph - N/A   Scattered Clouds
11:30 AM 87.8 °F 92.6 °F 69.8 °F 55% 29.89 in 5.6 mi NE 5.8 mph - N/A   Scattered Clouds
12:00 PM 91.4 °F 98.4 °F 71.6 °F 52% 29.89 in 5.6 mi NNE 5.8 mph - N/A   Scattered Clouds
12:30 PM 89.6 °F 93.4 °F 68.0 °F 49% 29.86 in 5.6 mi NNE 5.8 mph - N/A   Scattered Clouds
1:00 PM 91.4 °F 96.8 °F 69.8 °F 49% 29.86 in 5.6 mi ENE 4.6 mph - N/A   Scattered Clouds
1:30 PM 91.4 °F 93.2 °F 64.4 °F 41% 29.83 in 5.6 mi North 8.1 mph - N/A   Scattered Clouds
2:00 PM 93.2 °F 97.7 °F 68.0 °F 44% 29.83 in 5.6 mi East 8.1 mph - N/A   Scattered Clouds
2:30 PM 91.4 °F 94.0 °F 66.2 °F 43% 29.80 in 5.6 mi NE 9.2 mph - N/A   Scattered Clouds
3:00 PM 91.4 °F 95.4 °F 68.0 °F 46% 29.80 in 5.6 mi NE 10.4 mph - N/A   Scattered Clouds
3:30 PM 91.4 °F 95.4 °F 68.0 °F 46% 29.77 in 5.6 mi North 6.9 mph - N/A   Scattered Clouds
4:00 PM 91.4 °F 93.2 °F 64.4 °F 41% 29.77 in 5.6 mi NE 6.9 mph - N/A   Scattered Clouds
4:30 PM 91.4 °F 93.2 °F 64.4 °F 41% 29.77 in 5.6 mi NNE 8.1 mph - N/A   Scattered Clouds
5:00 PM 89.6 °F 94.7 °F 69.8 °F 52% 29.77 in 5.6 mi NE 11.5 mph - N/A   Scattered Clouds
5:30 PM 87.8 °F 93.8 °F 71.6 °F 58% 29.77 in 5.6 mi NE 8.1 mph - N/A   Scattered Clouds
6:00 PM 86.0 °F 91.8 °F 71.6 °F 62% 29.80 in 5.6 mi NE 5.8 mph - N/A   Scattered Clouds
6:30 PM 84.2 °F 88.4 °F 69.8 °F 62% 29.80 in 5.6 mi NE 6.9 mph - N/A   Scattered Clouds
7:00 PM 83 °F - 70 °F 56% 29.83 in 6 mi NE 4.6 mph - -   Mist
7:00 PM 82.4 °F 86.3 °F 69.8 °F 66% 29.83 in 5.6 mi NE 4.6 mph - N/A   Scattered Clouds
7:30 PM 80.6 °F 84.6 °F 71.6 °F 74% 29.83 in 5.6 mi NNE 3.5 mph - N/A   Scattered Clouds
8:00 PM 80.6 °F 85.4 °F 73.4 °F 79% 29.86 in 5.6 mi NNW 3.5 mph - N/A   Scattered Clouds
8:30 PM 80.6 °F 85.4 °F 73.4 °F 79% 29.86 in 5.6 mi North 2.3 mph - N/A   Scattered Clouds
9:00 PM 78.8 °F - 73.4 °F 83% 29.89 in 6.2 mi WNW 4.6 mph - N/A   Scattered Clouds
9:30 PM 78.8 °F - 73.4 °F 83% 29.89 in 5.6 mi NW 4.6 mph - N/A   Scattered Clouds
10:00 PM 78.8 °F - 73.4 °F 83% 29.89 in 5.6 mi NNW 5.8 mph - N/A   Scattered Clouds
10:30 PM 78.8 °F - 73.4 °F 83% 29.89 in 5.6 mi WNW 3.5 mph - N/A   Scattered Clouds
11:00 PM 77.0 °F - 73.4 °F 89% 29.92 in 5.6 mi NW 4.6 mph - N/A   Scattered Clouds
11:30 PM 77.0 °F - 73.4 °F 89% 29.92 in 5.0 mi NW 3.5 mph - N/A   Scattered Clouds